period_start,C,m1,H,J0,J1,J2,J3,J4,J5,JA,JB,JC,JD,JJ,JK,JN,#
2016-10-02 00:00:32,0.00,0.37,0.00,23.94,28.72,31.70,14.55,46.38,1025.44,2028.95,3359.00,3043.85,3423.98,600.00,599.32,31.16,0000 0000 0000 0000 000000
2016-10-02 00:05:33,0.00,0.37,0.00,23.91,28.72,31.68,14.60,46.40,1025.46,2028.97,3358.88,3043.80,3423.92,600.14,599.60,31.21,0000 0000 0000 0000 000000
2016-10-02 00:10:34,0.04,0.37,0.00,23.95,28.72,31.70,14.52,46.38,1025.60,2028.97,3358.10,3043.20,3423.17,599.77,599.16,31.26,0000 0000 0000 0000 000000
2016-10-02 00:15:36,0.03,0.37,0.00,23.97,28.72,31.69,14.65,46.32,1025.73,2028.98,3357.31,3042.95,3422.69,600.18,599.62,31.31,0000 0000 0000 0000 000000
2016-10-02 00:20:37,0.04,0.38,0.00,24.03,28.72,31.72,14.61,46.33,1025.65,2028.98,3356.05,3042.23,3422.01,599.95,599.29,31.36,0000 0000 0000 0000 000000
2016-10-02 00:25:39,0.00,0.38,0.00,24.01,28.72,31.74,14.61,46.46,1025.74,2028.98,3355.84,3042.03,3421.93,599.95,599.33,31.41,0000 0000 0000 0000 000000
2016-10-02 00:30:40,0.02,0.38,0.00,24.07,28.72,31.77,14.66,46.50,1025.71,2028.97,3355.10,3042.00,3421.30,600.47,599.62,31.46,0000 0000 0000 0000 000000
2016-10-02 00:35:41,0.00,0.38,0.00,24.09,28.72,31.82,14.49,46.24,1025.64,2028.98,3354.94,3042.00,3421.01,599.80,598.91,31.51,0000 0000 0000 0000 000000
2016-10-02 00:40:42,0.01,0.38,0.00,24.13,28.72,31.80,14.63,46.31,1025.76,2028.98,3354.21,3041.97,3420.98,600.29,599.42,31.56,0000 0000 0000 0000 000000
2016-10-02 00:45:44,-0.00,0.38,0.00,24.10,28.73,31.78,14.56,46.33,1025.72,2028.99,3354.00,3041.95,3420.87,599.96,599.11,31.61,0000 0000 0000 0000 000000
2016-10-02 00:50:45,0.13,0.38,0.00,24.06,28.74,31.77,14.54,46.27,1025.56,2028.98,3352.61,3040.75,3419.47,599.99,599.18,31.66,0000 0000 0000 0000 000000
2016-10-02 00:55:47,0.10,0.39,0.00,24.08,28.74,31.76,14.56,46.37,1025.68,2028.97,3349.24,3038.61,3417.16,599.80,598.96,31.71,0000 0000 0000 0000 000000
2016-10-02 01:00:48,0.04,0.39,0.00,24.08,28.74,31.76,14.59,46.48,1025.60,2028.97,3347.93,3038.00,3416.42,599.84,598.96,31.76,0000 0000 0000 0000 000000
2016-10-02 01:05:49,0.04,0.40,0.00,24.09,28.73,31.74,14.55,46.39,1025.60,2028.96,3346.98,3037.34,3415.72,599.88,598.91,31.81,0000 0000 0000 0000 000000
2016-10-02 01:10:50,0.03,0.40,0.00,24.09,28.73,31.75,14.62,46.35,1025.64,2028.98,3345.99,3036.97,3414.95,599.91,598.94,31.86,0000 0000 0000 0000 000000
2016-10-02 01:15:52,0.06,0.40,0.00,24.10,28.72,31.81,14.62,46.51,1025.75,2028.98,3344.74,3036.17,3414.02,600.40,599.57,31.91,0000 0000 0000 0000 000000
2016-10-02 01:20:53,0.14,0.41,0.00,24.10,28.72,31.81,14.61,46.44,1025.81,2028.94,3342.01,3034.51,3412.05,600.16,599.28,31.96,0000 0000 0000 0000 000000
2016-10-02 01:25:54,0.09,0.41,0.00,24.12,28.72,31.83,14.57,46.42,1025.82,2028.95,3339.50,3032.87,3410.28,599.86,599.01,32.01,0000 0000 0000 0000 000000
2016-10-02 01:30:55,0.25,0.42,0.00,24.15,28.72,31.82,14.57,46.48,1025.84,2028.97,3334.72,3029.88,3406.82,599.87,598.84,32.06,0000 0000 0000 0000 000000
2016-10-02 01:35:56,0.28,0.44,0.00,24.18,28.72,31.81,14.51,46.42,1025.86,2028.98,3328.07,3025.54,3402.01,600.15,599.23,32.11,0000 0000 0000 0000 000000
2016-10-02 01:40:57,0.11,0.45,0.00,24.19,28.72,31.82,14.64,46.51,1025.84,2028.96,3324.81,3023.48,3399.56,599.99,599.03,32.16,0000 0000 0000 0000 000000
2016-10-02 01:45:59,0.05,0.45,0.00,24.17,28.72,31.76,14.67,46.50,1025.86,2028.96,3323.44,3022.65,3398.57,600.17,599.30,32.21,0000 0000 0000 0000 000000
2016-10-02 01:51:00,0.17,0.45,0.00,24.16,28.72,31.75,14.69,46.57,1025.89,2028.98,3320.41,3020.75,3396.47,600.29,599.45,32.27,0000 0000 0000 0000 000000
2016-10-02 01:56:02,0.24,0.47,0.00,24.17,28.72,31.83,14.59,46.54,1025.89,2028.98,3314.91,3017.21,3392.50,600.03,599.17,32.32,0000 0000 0000 0000 000000
2016-10-02 02:01:03,0.32,0.48,0.00,24.18,28.72,31.76,14.57,46.49,1025.89,2028.96,3308.09,3012.79,3387.72,599.93,598.96,32.37,0000 0000 0000 0000 000000
2016-10-02 02:06:04,0.22,0.49,0.00,24.18,28.72,31.78,14.56,46.38,1025.89,2028.96,3302.41,3009.05,3383.58,599.96,599.02,32.42,0000 0000 0000 0000 000000
2016-10-02 02:11:06,0.04,0.50,0.00,24.22,28.72,31.81,14.55,46.47,1025.90,2028.97,3300.31,3008.01,3382.05,599.79,598.78,32.47,0000 0000 0000 0000 000000
2016-10-02 02:16:06,0.05,0.50,0.00,24.21,28.72,31.83,14.57,46.54,1025.90,2028.95,3299.16,3007.20,3381.21,600.29,599.32,32.52,0000 0000 0000 0000 000000
2016-10-02 02:21:08,0.12,0.51,0.00,24.21,28.72,31.83,14.58,46.58,1025.90,2028.95,3296.86,3005.77,3379.56,600.04,599.05,32.57,0000 0000 0000 0000 000000
2016-10-02 02:26:09,0.07,0.51,0.00,24.21,28.72,31.81,14.62,46.55,1025.90,2028.96,3294.82,3004.56,3378.08,599.96,599.05,32.62,0000 0000 0000 0000 000000
2016-10-02 02:31:10,0.17,0.52,0.00,24.22,28.72,31.82,14.59,46.64,1025.90,2028.97,3291.47,3002.50,3375.74,600.11,599.08,32.67,0000 0000 0000 0000 000000
2016-10-02 02:36:11,0.06,0.52,0.00,24.22,28.72,31.82,14.62,46.60,1025.90,2028.98,3289.47,3001.12,3374.19,599.92,598.93,32.72,0000 0000 0000 0000 000000
2016-10-02 02:41:13,0.02,0.53,0.00,24.25,28.71,31.85,14.59,46.60,1025.91,2028.98,3288.68,3000.91,3373.54,599.82,598.76,32.77,0000 0000 0000 0000 000000
2016-10-02 02:46:14,0.03,0.53,0.00,24.24,28.72,31.85,14.50,46.65,1025.92,2028.98,3288.02,3000.17,3373.02,599.79,598.82,32.82,0000 0000 0000 0000 000000
2016-10-02 02:51:15,0.01,0.53,0.00,24.25,28.72,31.84,14.62,46.56,1025.93,2028.92,3287.43,3000.00,3372.71,599.88,598.80,32.87,0000 0000 0000 0000 000000
2016-10-02 02:56:16,0.02,0.53,0.00,24.27,28.72,31.82,14.57,46.60,1025.92,2028.92,3286.86,2999.87,3372.03,600.27,599.19,32.92,0000 0000 0000 0000 000000
2016-10-02 03:01:17,0.03,0.53,0.00,24.30,28.72,31.85,14.53,46.55,1025.91,2028.95,3286.05,2999.15,3371.81,599.80,598.66,32.97,0000 0000 0000 0000 000000
2016-10-02 03:06:19,0.01,0.53,0.00,24.29,28.72,31.85,14.57,46.50,1025.91,2028.93,3285.96,2999.01,3371.13,600.42,599.10,33.02,0000 0000 0000 0000 000000
2016-10-02 03:11:20,0.01,0.53,0.00,24.28,28.72,31.82,14.56,46.54,1025.91,2028.91,3285.22,2998.98,3371.00,599.79,598.58,33.07,0000 0000 0000 0000 000000
2016-10-02 03:16:21,0.01,0.53,0.00,24.31,28.72,31.84,14.59,46.62,1025.91,2028.96,3285.00,2998.98,3370.99,600.11,598.94,33.12,0000 0000 0000 0000 000000
2016-10-02 03:21:22,0.02,0.53,0.00,24.33,28.72,31.86,14.62,46.57,1025.93,2028.97,3284.62,2998.95,3370.56,600.04,598.77,33.17,0000 0000 0000 0000 000000
2016-10-02 03:26:24,0.02,0.54,0.00,24.34,28.72,31.79,14.54,46.54,1025.97,2028.97,3284.03,2998.57,3370.04,599.82,598.62,33.22,0000 0000 0000 0000 000000
2016-10-02 03:31:25,0.01,0.54,0.00,24.36,28.72,31.81,14.61,46.57,1026.16,2028.96,3283.93,2998.18,3369.99,600.32,599.13,33.27,0000 0000 0000 0000 000000
2016-10-02 03:36:26,0.07,0.54,0.00,24.37,28.72,31.83,14.53,46.52,1026.16,2028.93,3282.45,2997.51,3368.91,600.26,599.10,33.33,0000 0000 0000 0000 000000
2016-10-02 03:41:27,0.09,0.54,0.00,24.39,28.72,31.81,14.53,46.45,1026.32,2028.95,3280.15,2996.15,3367.33,599.80,598.71,33.38,0000 0000 0000 0000 000000
2016-10-02 03:46:29,0.04,0.55,0.00,24.41,28.72,31.82,14.59,46.48,1026.36,2028.93,3279.08,2995.69,3366.53,599.85,598.77,33.43,0000 0000 0000 0000 000000
2016-10-02 03:51:30,0.01,0.55,0.00,24.40,28.72,31.76,14.57,46.40,1026.38,2028.92,3278.80,2995.08,3366.02,600.04,598.97,33.48,0000 0000 0000 0000 000000
2016-10-02 03:56:32,-0.00,0.55,0.00,24.42,28.72,31.75,14.61,46.53,1026.38,2028.89,3278.21,2995.02,3366.00,600.14,598.99,33.53,0000 0000 0000 0000 000000
2016-10-02 04:01:33,0.01,0.55,0.00,24.45,28.72,31.76,14.56,46.54,1026.38,2028.90,3278.01,2995.00,3365.98,600.03,598.84,33.58,0000 0000 0000 0000 000000
2016-10-02 04:06:34,0.05,0.55,0.00,24.45,28.72,31.75,14.52,46.52,1026.38,2028.84,3277.37,2994.72,3365.34,599.88,598.62,33.63,0000 0000 0000 0000 000000
2016-10-02 04:11:35,0.07,0.55,0.00,24.46,28.72,31.74,14.55,46.48,1026.38,2028.72,3275.21,2993.32,3363.54,599.92,598.69,33.68,0000 0000 0000 0000 000000
2016-10-02 04:16:36,0.03,0.56,0.00,24.47,28.72,31.71,14.57,46.42,1026.38,2028.83,3274.59,2992.99,3363.00,600.00,598.71,33.73,0000 0000 0000 0000 000000
2016-10-02 04:21:37,0.06,0.56,0.00,24.45,28.72,31.77,14.55,46.43,1026.38,2028.78,3272.98,2992.15,3362.12,599.77,598.61,33.78,0000 0000 0000 0000 000000
2016-10-02 04:26:38,0.05,0.56,0.00,24.46,28.72,31.77,14.55,46.43,1026.38,2028.82,3271.95,2991.75,3361.23,600.05,598.80,33.83,0000 0000 0000 0000 000000
2016-10-02 04:31:40,0.06,0.56,0.00,24.48,28.72,31.73,14.61,46.51,1026.38,2028.86,3270.70,2990.91,3360.59,600.37,599.13,33.88,0000 0000 0000 0000 000000
2016-10-02 04:36:41,0.03,0.57,0.00,24.50,28.72,31.71,14.57,46.44,1026.38,2028.79,3269.61,2990.14,3359.96,599.91,598.58,33.93,0000 0000 0000 0000 000000
2016-10-02 04:41:42,0.01,0.57,0.00,24.51,28.71,31.72,14.54,46.44,1026.39,2028.84,3269.01,2990.00,3359.57,600.10,598.82,33.98,0000 0000 0000 0000 000000
2016-10-02 04:46:43,-0.01,0.57,0.00,24.51,28.70,31.74,14.55,46.40,1026.38,2028.65,3268.86,2990.01,3359.09,600.24,599.00,34.03,0000 0000 0000 0000 000000
2016-10-02 04:51:44,0.03,0.57,0.00,24.51,28.70,31.71,14.53,46.50,1026.39,2028.60,3268.22,2990.00,3359.01,600.16,598.83,34.08,0000 0000 0000 0000 000000
2016-10-02 04:56:45,-0.02,0.57,0.00,24.53,28.70,31.67,14.56,46.41,1026.39,2028.58,3268.00,2990.00,3358.97,600.17,598.75,34.13,0000 0000 0000 0000 000000
2016-10-02 05:01:46,0.00,0.57,0.00,24.53,28.70,31.65,14.54,46.45,1026.41,2028.51,3267.93,2989.98,3358.77,600.00,598.67,34.18,0000 0000 0000 0000 000000
2016-10-02 05:06:47,0.02,0.57,0.00,24.53,28.70,31.66,14.53,46.49,1026.66,2028.53,3267.25,2989.97,3358.30,600.19,599.03,34.24,0000 0000 0000 0000 000000
2016-10-02 05:11:49,0.02,0.57,0.00,24.56,28.70,31.65,14.55,46.52,1026.86,2028.65,3267.02,2989.95,3358.07,599.96,598.79,34.29,0000 0000 0000 0000 000000
2016-10-02 05:16:50,0.01,0.57,0.00,24.55,28.69,31.68,14.58,46.61,1026.83,2028.80,3266.99,2989.93,3358.01,600.13,599.00,34.34,0000 0000 0000 0000 000000
2016-10-02 05:21:51,0.05,0.57,0.00,24.54,28.68,31.65,14.58,46.51,1026.85,2028.79,3266.29,2989.42,3357.74,600.17,599.07,34.39,0000 0000 0000 0000 000000
2016-10-02 05:26:53,0.02,0.57,0.00,24.58,28.67,31.67,14.48,46.61,1026.84,2028.83,3265.10,2988.99,3357.02,599.60,598.43,34.44,0000 0000 0000 0000 000000
2016-10-02 05:31:54,0.06,0.58,0.00,24.57,28.67,31.64,14.50,46.52,1026.86,2028.87,3264.67,2988.65,3356.68,600.00,598.91,34.49,0000 0000 0000 0000 000000
2016-10-02 05:36:55,0.03,0.58,0.00,24.57,28.67,31.63,14.56,46.55,1026.87,2028.92,3263.60,2988.01,3356.00,600.23,599.14,34.54,0000 0000 0000 0000 000000
2016-10-02 05:41:57,0.06,0.58,0.00,24.60,28.67,31.62,14.58,46.57,1026.87,2028.94,3262.51,2987.42,3355.12,600.17,598.97,34.59,0000 0000 0000 0000 000000
2016-10-02 05:46:58,0.09,0.59,0.00,24.61,28.67,31.58,14.53,46.63,1026.86,2028.94,3260.39,2986.11,3353.47,599.88,598.68,34.64,0000 0000 0000 0000 000000
2016-10-02 05:51:59,0.06,0.59,0.00,24.58,28.65,31.63,14.51,46.48,1026.87,2028.93,3258.89,2985.11,3352.27,600.06,598.91,34.69,0000 0000 0000 0000 000000
2016-10-02 05:57:00,0.09,0.59,0.00,24.59,28.65,31.57,14.50,46.53,1026.87,2028.95,3257.18,2984.23,3351.28,600.33,599.17,34.74,0000 0000 0000 0000 000000
2016-10-02 06:02:01,0.07,0.60,0.00,24.61,28.65,31.59,14.53,46.51,1026.87,2028.98,3254.92,2982.94,3349.70,599.92,598.72,34.79,0000 0000 0000 0000 000000
2016-10-02 06:07:03,0.09,0.60,0.00,24.59,28.65,31.58,14.62,46.50,1026.88,2028.95,3253.42,2981.78,3348.47,599.90,598.72,34.84,0000 0000 0000 0000 000000
2016-10-02 06:12:04,0.01,0.60,0.00,24.63,28.65,31.57,14.62,46.52,1026.88,2028.98,3252.71,2981.39,3348.00,599.94,598.62,34.89,0000 0000 0000 0000 000000
2016-10-02 06:17:05,0.01,0.60,0.00,24.62,28.65,31.57,14.48,46.39,1026.97,2028.96,3252.04,2981.15,3347.91,599.92,598.62,34.94,0000 0000 0000 0000 000000
2016-10-02 06:22:06,0.04,0.61,0.00,24.64,28.65,31.58,14.54,46.44,1027.23,2028.96,3251.09,2980.79,3347.00,600.22,599.05,34.99,0000 0000 0000 0000 000000
2016-10-02 06:27:07,0.22,0.61,0.00,24.62,28.64,31.55,14.59,46.32,1027.30,2028.97,3247.67,2978.57,3344.39,600.10,599.12,35.04,0000 0000 0000 0000 000000
2016-10-02 06:32:08,0.09,0.62,0.00,24.63,28.62,31.57,14.54,46.44,1027.36,2028.96,3244.41,2976.45,3342.07,600.03,599.05,35.09,0000 0000 0000 0000 000000
2016-10-02 06:37:10,0.00,0.62,0.00,24.65,28.62,31.57,14.56,46.33,1027.36,2028.97,3243.99,2976.02,3341.95,599.97,598.97,35.15,0000 0000 0000 0000 000000
2016-10-02 06:42:11,0.02,0.62,0.00,24.64,28.62,31.57,14.51,46.37,1027.36,2028.98,3243.43,2976.01,3341.36,600.14,599.20,35.20,0000 0000 0000 0000 000000
2016-10-02 06:47:12,0.01,0.62,0.00,24.62,28.62,31.58,14.52,46.43,1027.36,2028.98,3243.02,2976.00,3341.06,599.96,599.08,35.25,0000 0000 0000 0000 000000
2016-10-02 06:52:14,0.00,0.62,0.00,24.65,28.62,31.54,14.51,46.36,1027.36,2028.98,3242.82,2976.00,3341.00,599.68,598.75,35.30,0000 0000 0000 0000 000000
2016-10-02 06:57:15,0.03,0.63,0.00,24.64,28.62,31.55,14.55,46.36,1027.37,2028.98,3242.01,2975.82,3340.65,600.41,599.44,35.35,0000 0000 0000 0000 000000
2016-10-02 07:02:16,0.03,0.63,0.00,24.65,28.61,31.51,14.64,46.36,1027.38,2028.98,3241.14,2975.09,3340.01,600.37,599.29,35.40,0000 0000 0000 0000 000000
2016-10-02 07:07:18,0.00,0.63,0.00,24.64,28.60,31.55,14.53,46.44,1027.39,2028.99,3240.96,2975.01,3339.97,600.16,599.16,35.45,0000 0000 0000 0000 000000
2016-10-02 07:12:19,0.01,0.63,0.00,24.69,28.60,31.56,14.62,46.61,1027.38,2028.99,3240.47,2975.00,3339.85,600.06,599.01,35.50,0000 0000 0000 0000 000000
2016-10-02 07:17:21,0.01,0.63,0.00,24.64,28.60,31.57,14.61,46.58,1027.38,2028.99,3240.04,2975.00,3339.34,599.97,598.91,35.55,0000 0000 0000 0000 000000
2016-10-02 07:22:22,0.00,0.63,0.00,24.66,28.60,31.50,14.59,46.47,1027.57,2028.99,3239.94,2974.99,3339.02,600.19,599.28,35.60,0000 0000 0000 0000 000000
2016-10-02 07:27:24,0.01,0.63,0.00,24.67,28.59,31.53,14.60,46.55,1027.79,2028.99,3239.20,2974.96,3339.00,599.93,599.10,35.65,0000 0000 0000 0000 000000
2016-10-02 07:32:25,0.00,0.63,0.00,24.64,28.58,31.52,14.57,46.57,1027.82,2028.99,3239.04,2974.97,3338.99,599.76,599.04,35.70,0000 0000 0000 0000 000000
2016-10-02 07:37:26,0.00,0.63,0.00,24.64,28.57,31.51,14.57,46.52,1027.83,2028.99,3239.00,2974.97,3338.94,600.14,599.42,35.75,0000 0000 0000 0000 000000
2016-10-02 07:42:27,0.00,0.63,0.00,24.65,28.57,31.50,14.59,46.58,1027.81,2028.99,3238.91,2974.94,3338.66,600.23,599.49,35.80,0000 0000 0000 0000 000000
2016-10-02 07:47:29,0.03,0.63,0.00,24.66,28.57,31.50,14.51,46.52,1027.80,2028.99,3238.06,2974.59,3338.20,599.89,599.08,35.85,0000 0000 0000 0000 000000
2016-10-02 07:52:30,0.12,0.64,0.00,24.66,28.57,31.51,14.56,46.53,1027.85,2028.99,3235.87,2973.12,3336.62,600.29,599.59,35.90,0000 0000 0000 0000 000000
2016-10-02 07:57:31,0.18,0.65,0.00,24.65,28.57,31.51,14.61,46.40,1027.85,2028.99,3232.00,2970.56,3333.80,600.12,599.38,35.95,0000 0000 0000 0000 000000
2016-10-02 08:02:33,0.22,0.66,0.00,24.68,28.57,31.49,14.53,46.58,1027.85,2028.99,3227.43,2967.63,3330.46,599.83,599.06,36.00,0000 0000 0000 0000 000000
2016-10-02 08:07:34,0.13,0.67,0.00,24.64,28.57,31.48,14.45,46.58,1027.85,2028.99,3224.01,2965.52,3327.97,599.62,598.98,36.06,0000 0000 0000 0000 000000
2016-10-02 08:12:35,0.09,0.67,0.00,24.65,28.56,31.48,14.51,46.51,1027.85,2028.99,3221.30,2963.97,3326.16,599.82,599.07,36.11,0000 0000 0000 0000 000000
2016-10-02 08:17:36,0.06,0.67,0.00,24.66,28.55,31.49,14.48,46.48,1027.85,2028.99,3220.13,2963.10,3325.25,599.83,599.09,36.16,0000 0000 0000 0000 000000
2016-10-02 08:22:38,0.06,0.68,0.00,24.67,28.55,31.49,14.66,46.58,1027.85,2028.99,3218.64,2962.52,3324.52,600.33,599.60,36.21,0000 0000 0000 0000 000000
2016-10-02 08:27:39,0.09,0.68,0.00,24.67,28.55,31.46,14.53,46.50,1027.85,2029.00,3216.44,2961.01,3322.83,600.15,599.46,36.26,0000 0000 0000 0000 000000
2016-10-02 08:32:40,0.13,0.69,0.00,24.65,28.55,31.49,14.55,46.48,1027.85,2029.00,3213.68,2959.31,3320.76,599.98,599.29,36.31,0000 0000 0000 0000 000000
2016-10-02 08:37:42,0.13,0.69,0.00,24.65,28.55,31.47,14.54,46.48,1027.85,2029.00,3210.81,2957.49,3318.75,600.23,599.51,36.36,0000 0000 0000 0000 000000
2016-10-02 08:42:43,0.18,0.70,0.00,24.62,28.55,31.46,14.58,46.50,1027.85,2029.00,3207.06,2955.21,3316.16,599.93,599.11,36.41,0000 0000 0000 0000 000000
2016-10-02 08:47:44,0.14,0.71,0.00,24.64,28.55,31.46,14.58,46.35,1027.85,2029.00,3203.26,2952.82,3313.46,600.40,599.70,36.46,0000 0000 0000 0000 000000
2016-10-02 08:52:45,0.09,0.72,0.00,24.66,28.54,31.45,14.61,46.43,1027.85,2029.00,3201.38,2951.67,3312.13,600.10,599.24,36.51,0000 0000 0000 0000 000000
2016-10-02 08:57:47,0.14,0.72,0.00,24.66,28.53,31.45,14.48,46.25,1027.85,2029.01,3198.50,2949.84,3310.08,599.92,599.18,36.56,0000 0000 0000 0000 000000
2016-10-02 09:02:48,0.10,0.73,0.00,24.65,28.52,31.46,14.54,46.39,1027.85,2029.01,3195.65,2948.16,3308.05,599.87,599.08,36.61,0000 0000 0000 0000 000000
2016-10-02 09:07:49,0.08,0.73,0.00,24.63,28.52,31.45,14.57,46.33,1027.85,2029.01,3193.81,2946.96,3306.65,600.23,599.69,36.66,0000 0000 0000 0000 000000
2016-10-02 09:12:50,0.06,0.74,0.00,24.63,28.52,31.45,14.55,46.39,1027.85,2029.00,3192.27,2946.02,3305.42,600.00,599.26,36.71,0000 0000 0000 0000 000000
2016-10-02 09:17:51,0.02,0.74,0.00,24.62,28.52,31.42,14.53,46.48,1027.86,2029.00,3191.42,2945.76,3304.92,599.81,599.09,36.76,0000 0000 0000 0000 000000
2016-10-02 09:22:53,0.15,0.75,0.00,24.60,28.52,31.44,14.57,46.36,1027.85,2029.00,3188.25,2944.03,3303.10,600.12,599.57,36.81,0000 0000 0000 0000 000000
2016-10-02 09:27:54,0.20,0.75,0.00,24.64,28.52,31.43,14.60,46.37,1027.86,2029.01,3184.13,2941.68,3300.37,600.12,599.43,36.86,0000 0000 0000 0000 000000
2016-10-02 09:32:56,0.15,0.76,0.00,24.64,28.52,31.43,14.56,46.42,1027.91,2029.00,3180.55,2939.42,3297.81,599.88,599.29,36.91,0000 0000 0000 0000 000000
2016-10-02 09:37:57,0.13,0.77,0.00,24.64,28.51,31.42,14.45,46.44,1027.90,2029.00,3177.28,2937.24,3295.32,599.85,599.16,36.97,0000 0000 0000 0000 000000
2016-10-02 09:42:58,0.05,0.77,0.00,24.63,28.50,31.44,14.53,46.58,1027.90,2029.01,3176.07,2936.62,3294.47,599.84,599.20,37.02,0000 0000 0000 0000 000000
2016-10-02 09:47:59,0.07,0.78,0.00,24.62,28.50,31.41,14.57,46.65,1027.93,2029.01,3174.13,2935.55,3293.06,600.05,599.50,37.07,0000 0000 0000 0000 000000
2016-10-02 09:53:01,0.09,0.78,0.00,24.61,28.50,31.45,14.53,46.67,1027.92,2029.01,3172.39,2934.28,3291.67,599.94,599.34,37.12,0000 0000 0000 0000 000000
2016-10-02 09:58:02,0.04,0.79,0.00,24.62,28.50,31.43,14.54,46.73,1027.90,2029.01,3171.22,2933.51,3290.97,599.98,599.45,37.17,0000 0000 0000 0000 000000
2016-10-02 10:03:03,0.01,0.79,0.00,24.62,28.50,31.42,14.59,46.63,1028.07,2029.00,3170.99,2933.05,3290.47,600.06,599.41,37.22,0000 0000 0000 0000 000000
2016-10-02 10:08:05,0.01,0.79,0.00,24.60,28.50,31.41,14.59,46.64,1028.15,2029.01,3170.34,2933.00,3290.02,600.22,599.71,37.27,0000 0000 0000 0000 000000
2016-10-02 10:13:06,0.00,0.79,0.00,24.60,28.49,31.43,14.69,46.67,1028.12,2029.03,3170.00,2932.99,3289.97,600.24,599.75,37.32,0000 0000 0000 0000 000000
2016-10-02 10:18:07,0.01,0.79,0.00,24.58,28.48,31.42,14.65,46.77,1028.00,2029.04,3169.89,2932.94,3289.63,600.25,599.82,37.37,0000 0000 0000 0000 000000
2016-10-02 10:23:08,0.02,0.79,0.00,24.58,28.47,31.43,14.61,46.88,1028.11,2029.03,3169.18,2932.75,3289.08,600.06,599.53,37.42,0000 0000 0000 0000 000000
2016-10-02 10:28:10,0.02,0.79,0.00,24.58,28.47,31.41,14.51,46.82,1027.96,2029.02,3169.00,2932.24,3289.00,599.83,599.25,37.47,0000 0000 0000 0000 000000
2016-10-02 10:33:11,0.00,0.79,0.00,24.58,28.47,31.42,14.67,46.91,1027.88,2029.02,3168.99,2932.05,3289.00,600.43,599.90,37.52,0000 0000 0000 0000 000000
2016-10-02 10:38:12,0.01,0.79,0.00,24.59,28.47,31.44,14.52,46.84,1027.87,2029.02,3168.59,2932.02,3288.96,599.92,599.35,37.57,0000 0000 0000 0000 000000
2016-10-02 10:43:14,0.02,0.79,0.00,24.60,28.47,31.44,14.55,46.77,1027.86,2029.03,3168.02,2932.00,3288.30,600.09,599.27,37.62,0000 0000 0000 0000 000000
2016-10-02 10:48:15,0.00,0.79,0.00,24.59,28.47,31.42,14.49,46.78,1027.87,2029.03,3167.94,2932.00,3288.02,599.76,599.09,37.67,0000 0000 0000 0000 000000
2016-10-02 10:53:16,0.01,0.79,0.00,24.58,28.47,31.42,14.60,46.82,1027.86,2029.02,3167.43,2931.98,3288.00,600.10,599.52,37.72,0000 0000 0000 0000 000000
2016-10-02 10:58:18,0.01,0.79,0.00,24.57,28.47,31.41,14.56,46.78,1027.85,2029.05,3167.01,2931.91,3287.92,599.66,599.09,37.77,0000 0000 0000 0000 000000
2016-10-02 11:03:19,0.01,0.79,0.00,24.56,28.47,31.44,14.60,46.83,1027.85,2029.05,3166.92,2931.80,3287.49,600.03,599.56,37.82,0000 0000 0000 0000 000000
2016-10-02 11:08:21,0.03,0.80,0.00,24.55,28.47,31.43,14.60,46.81,1027.85,2029.02,3166.21,2931.24,3287.03,599.90,599.43,37.88,0000 0000 0000 0000 000000
2016-10-02 11:13:22,0.01,0.80,0.00,24.55,28.46,31.42,14.49,46.69,1027.85,2029.05,3166.00,2931.05,3287.00,599.60,599.10,37.93,0000 0000 0000 0000 000000
2016-10-02 11:18:24,-0.00,0.80,0.00,24.55,28.46,31.43,14.65,46.88,1027.85,2029.04,3165.97,2931.00,3286.97,600.36,599.91,37.98,0000 0000 0000 0000 000000
2016-10-02 11:23:25,0.02,0.80,0.00,24.53,28.45,31.42,14.48,46.89,1027.85,2029.06,3165.53,2931.00,3286.63,599.80,599.31,38.03,0000 0000 0000 0000 000000
2016-10-02 11:28:26,0.05,0.80,0.00,24.54,28.45,31.41,14.53,46.83,1027.85,2029.08,3164.57,2930.58,3285.90,599.72,599.21,38.08,0000 0000 0000 0000 000000
2016-10-02 11:33:28,0.03,0.80,0.00,24.55,28.45,31.40,14.62,46.78,1027.85,2029.04,3163.75,2929.99,3285.10,600.08,599.56,38.13,0000 0000 0000 0000 000000
2016-10-02 11:38:29,0.03,0.80,0.00,24.55,28.45,31.39,14.61,46.76,1027.85,2029.02,3162.93,2929.59,3284.59,600.12,599.63,38.18,0000 0000 0000 0000 000000
2016-10-02 11:43:30,0.03,0.80,0.00,24.53,28.45,31.39,14.53,46.77,1027.85,2029.04,3162.26,2929.17,3284.06,599.96,599.48,38.23,0000 0000 0000 0000 000000
2016-10-02 11:48:32,0.04,0.81,0.00,24.52,28.45,31.43,14.54,46.76,1027.86,2029.06,3161.35,2928.88,3283.42,599.90,599.51,38.28,0000 0000 0000 0000 000000
2016-10-02 11:53:33,0.04,0.81,0.00,24.52,28.45,31.44,14.51,46.65,1027.85,2029.12,3160.48,2928.10,3282.93,599.79,599.34,38.33,0000 0000 0000 0000 000000
2016-10-02 11:58:34,0.04,0.81,0.00,24.51,28.45,31.43,14.52,46.69,1027.85,2029.11,3159.52,2927.80,3282.10,599.97,599.47,38.38,0000 0000 0000 0000 000000
2016-10-02 12:03:36,0.10,0.82,0.00,24.50,28.45,31.42,14.56,46.67,1027.85,2029.07,3157.51,2926.54,3280.71,600.14,599.76,38.43,0000 0000 0000 0000 000000
2016-10-02 12:08:37,0.13,0.82,0.00,24.50,28.45,31.42,14.55,46.75,1027.85,2029.10,3154.74,2924.71,3278.60,600.04,599.66,38.48,0000 0000 0000 0000 000000
2016-10-02 12:13:38,0.10,0.83,0.00,24.51,28.45,31.44,14.65,46.73,1027.85,2029.05,3152.33,2923.28,3276.89,599.95,599.46,38.53,0000 0000 0000 0000 000000
2016-10-02 12:18:40,0.07,0.83,0.00,24.49,28.45,31.42,14.64,46.83,1027.85,2029.07,3150.39,2922.06,3275.38,600.03,599.63,38.58,0000 0000 0000 0000 000000
2016-10-02 12:23:41,0.07,0.84,0.00,24.48,28.45,31.43,14.53,46.78,1027.85,2029.03,3148.93,2921.22,3274.43,600.07,599.71,38.63,0000 0000 0000 0000 000000
2016-10-02 12:28:43,0.05,0.84,0.00,24.47,28.45,31.42,14.60,46.82,1027.85,2029.05,3147.73,2920.24,3273.31,600.00,599.66,38.68,0000 0000 0000 0000 000000
2016-10-02 12:33:44,0.05,0.84,0.00,24.49,28.45,31.41,14.64,46.83,1027.85,2029.07,3146.54,2919.82,3272.64,600.09,599.74,38.74,0000 0000 0000 0000 000000
2016-10-02 12:38:45,0.09,0.85,0.00,24.46,28.45,31.45,14.60,46.66,1027.85,2029.05,3144.52,2918.50,3271.23,600.30,599.96,38.79,0000 0000 0000 0000 000000
2016-10-02 12:43:47,0.04,0.85,0.00,24.48,28.45,31.45,14.53,46.72,1027.85,2029.08,3143.32,2917.95,3270.23,599.91,599.45,38.84,0000 0000 0000 0000 000000
2016-10-02 12:48:48,0.08,0.85,0.00,24.45,28.45,31.44,14.53,46.61,1027.85,2029.08,3141.78,2916.92,3269.19,599.79,599.54,38.89,0000 0000 0000 0000 000000
2016-10-02 12:53:49,0.06,0.86,0.00,24.45,28.45,31.43,14.57,46.89,1027.85,2029.04,3140.14,2915.99,3267.90,599.81,599.45,38.94,0000 0000 0000 0000 000000